Location: Bennemühlen
(52.5740°N, 9.7135°E)
Time: 17:07:11
(UTC+00:00)

SR - Pass Details

Date: 26 February 2026
Orbit: 572 x 848 km, 66.7° (Epoch: 8 March)

Event Time Altitude Azimuth Distance (km) Brightness Sun altitude
Exits shadow 02:27:24 24° 45° (NE) 1,307 ? -33.9°
Drops below altitude 10° 02:29:19 10° 42° (NE) 2,045 ? -33.7°
Sets 02:31:42 0° 41° (NE) 3,003 ? -33.4°
